BANXING-2 (41834 NORAD) Tracking and Keplerian Element Data

This shows tracking and keplerian element data for the satellite.

Feedback or suggestion? Click here.




ElementValue
Catalog41834
NameBANXING-2
Epoch Orbit11826
Epoch Day317.69998843
Epoch Year2018
RAAN96.061
Inclination42.7789
Eccentricity0.001412
Argument of Perigee311.7709
Mean Anonmoly239.5037
Mean Motion15.84917182
Decay Rate0.00031123
L11 41834U 16057H 18317.69998843 .00031123 00000-0 12963-3 0 9999
L22 41834 42.7789 96.0610 0014120 311.7709 239.5037 15.84917182118260

Live tracking and technical data element details for BANXING-2 (NORAD 41834). BANXING-2 can be tracked NOW for your location showing map with azimuth and elevation plus other details from your city location.

Track the satellite on the map from your city or location and see movement details for azimuth, elevation, latitude, longitude, range, height, and movement on the map or in text.







IsCatalogInMostPopularTable: catalog: 41834, numindb: 118
Update: records affected: 1



GetName: 41834 BANXING-2

Hit Count: updated at: Wed, 14 Nov 2018 11:03:56 GMT